User: anonymous   Login
Location: Unspecified
(0.0000°N, 0.0000°E)
Time: 18:48:12
(UTC+00:00)
Language:

COSMOS 2463 - Orbit

View from above orbital plane
View from above orbital plane
View from above satellite
View from above satellite

Ground track
Ground track

The orbit data is extracted from the following two-line orbital elements,

1 36519U 10017A   17234.26297700 +.00000136 +00000-0 +13407-3 0  9991
2 36519 082.9587 095.6250 0037679 066.2431 294.2667 13.71415300366529
Epoch (UTC): 22 August 2017 06:18:41
Eccentricity: 0.0037679
inclination: 82.9587°
perigee height: 967 km
apogee height: 1022 km
right ascension of ascending node: 95.6250°
argument of perigee: 66.2431°
revolutions per day: 13.71415300
mean anomaly at epoch: 294.2667°
orbit number at epoch: 36652

The dashed part of the orbit path shows where the satellite is in the earth's shadow,  

DLR